Погода в Маме

Погода в Маме : погода сейчас, прогноз погоды и архив. Всё, что Вы хотите узнать о погоде в Маме!

Поиск расширенной информации на нашем сайте:

Другие новости

Новости СМИ2

Главная страница сайта

Новости сайта

03.07.2017

Напоминаем, что на нашем специализированном сайте Метеоцентр.Азия вы можете получить высокодетализированные автоматические прогнозы погоды по пунктам России, СНГ и мира в авиационном формате (включающие направление и скорость ветра, видимость, явления погоды, количество и форму облачности, нижнюю и верхнюю границу облачности).

Рекомендуем: Подбор авто.

Погода в Маме - сегодня

Время (UTC), дата Ветер
(°,м/с) 
Видим.   Явления Облачность Т
(°С)
Тd
(°С)
f(%) Тe
(°С)
Pmin
(гПа)
dP
(гПа)
Po
(мм)
O2
(г/м3)
Тmin Tmax R s Состояние
почвы
12 21.09.17 310 (СЗ) 20000 м    8/8 1380 м кучево-дожд. 
[Cb cap]
+6.2 -0.3 63 +5  1009.6  0.6  737  290    +11       
15 21.09.17 320 (СЗ) 20000 м    10/6 1380 м кучево-дожд., средняя 
[Cb cap|Ac und]
+5.3 +3.4 88 +4  1008.8  -0.9  736  290           
18 21.09.17 310 (СЗ) 20000 м    8/4 1000 м кучево-дожд., верхняя 
[Cb cap|Ci ing]
+4.2 +1.1 80 +3  1007.1  -1.7  735  291           
21 21.09.17 320 (СЗ) 20000 м    8/4 1000 м кучево-дожд., верхняя 
[Cb cap|Ci ing]
+4.5 +1.7 82 +3  1005.9  -1.2  734  291           
00 22.09.17 340 (С) 20000 м  слаб. ливневой дождь  10/6 1380 м кучево-дожд., средняя 
[Cb cap|Ac As]
+3.2 +1.7 90 +3  1005.9  -0.1  734  292  +3.2    0.1     
03 22.09.17 340 (С) 20000 м  {ливн. осадки}  10/5 1000 м кучево-дожд., средняя, верхняя 
[Cb cap|Ac trans|Ci ing]
+5.5 +0.6 71 +4  1003.5  -2.1  732  289           
06 22.09.17 320 (СЗ) 20000 м  {ливн. осадки}  10/8 1320 м кучево-дожд., средняя, верхняя 
[Cb cap|Ac trans|Ci ing]
+7.3 +0.8 63 +6  1001.8  -1.5  731  287           
09 22.09.17 330 (СЗ) 20000 м  слаб. ливневой дождь  10/8 1320 м кучево-дожд., средняя 
[Cb cap|Ac As]
+5.1 +2.4 83 +5  1002  731  289           
12 22.09.17 310 (СЗ) 10 км  слаб. ливневой дождь  10/10 1300 м кучево-дожд. 
[Cb cap]
+3.5 +2.8 95 +3  1002.6  0.4  731  291    +7.9     
15 22.09.17 330 (СЗ) 10 км  слаб. ливневой дождь  10/10 1110 м кучево-дожд. 
[Cb cap]
+2.8 +2.3 97 +2  1001.6  -0.9  731  291           
18 22.09.17 300 (СЗ) 10 км  слаб. ливневой дождь  10/10 1080 м кучево-дожд. 
[Cb cap]
+2.1 +1.6 96 +3  1001.3  -0.4  731  292           
21 22.09.17 тихо ()   4000 м  слаб. ливневой снег  10/10 1080 м кучево-дожд. 
[Cb cap]
+0.3 -0.3 96 1002.1  0.5  731  294           
00 23.09.17 тихо ()   4000 м  слаб. ливневой дождь со снегом  10/10 1080 м кучево-дожд. 
[Cb cap]
+0.7 +0.2 96 +1  1003.1  732  294  -0.2       
03 23.09.17 тихо ()   4000 м  слаб. ливневой дождь  10/8 1170 м кучево-дожд., средняя 
[Cb cap|Ac As]
+3.1 +2.1 93 +3  1003.9  1.1  732  291           
06 23.09.17 тихо ()   20000 м  {ливн. осадки}  10/8 1230 м кучево-дожд., средняя 
[Cb cap|Ac As]
+4.4 +2.4 87 +4  1004.9  733  290           
09 23.09.17 тихо ()   20000 м  слаб. ливневой дождь  10/8 1170 м кучево-дожд., средняя 
[Cb cap|Ac As]
+4 +2 87 +4  1007.3  2.4  735  292           
12 23.09.17 тихо ()   20000 м  слаб. ливневой дождь  10/8 1140 м кучево-дожд., средняя 
[Cb cap|Ac As]
+3.3 +2.8 97 +3  1009.2  1.7  736  293    +5.1     
15 23.09.17 080 (В) 4000 м  слаб. ливневой дождь  10/10 1110 м кучево-дожд. 
[Cb cap]
+2.8 +2.5 98 +4  1010.2  737  294           
18 23.09.17 160 (Ю) 4000 м  слаб. ливневой дождь  10/10 1110 м кучево-дожд. 
[Cb cap]
+1.9 +1.4 96 +3  1011.2  0.9  738  295           
21 23.09.17 тихо ()   4000 м  слаб. ливневой дождь  10/10 1080 м кучево-дожд. 
[Cb cap]
+2.3 +1.8 96 +2  1011.9  0.7  738  295           
00 24.09.17 110 (В) 4000 м  в посл. час ливневой дождь  10/8 1200 м кучево-дожд., верхняя 
[Cb cap|Ci ing]
+2.4 +1.6 94 +3  1012.3  0.4  739  295  +1.7       
03 24.09.17 340 (С) 20000 м    9/8 1260 м кучево-дожд., средняя 
[Cb cap|Ac und]
+4.3 -1.5 66 +3  1012.8  0.7  739  293           
06 24.09.17 350 (С) 20000 м    5/3 1000 м кучево-дожд., средняя 
[Cb cap|Ac trans]
+6.8 -1.1 57 +7  1012.7  0.1  739  291           
09 24.09.17 190 (Ю) 20000 м    9/9 1320 м кучево-дожд. 
[Cb cap]
+5.4 -1.3 62 +4  1012.7  -0.1  739  292           
12 24.09.17 тихо ()   20000 м    10/5 1000 м средняя 
[Sc|Ac und]
+3.2 +1.4 88 +3  1013  0.1  739  294    +7.7       
Время (UTC), дата Ветер
(°,м/с) 
Видим.   Явления Облачность Т
(°С)
Тd
(°С)
f(%) Тe
(°С)
Pmin
(гПа)
dP
(гПа)
Po
(мм)
O2
(г/м3)
Тmin Tmax R s Состояние
почвы

Для получения пояснительной информации подведите курсор к названию столбца.

ПОГОДА в Маме - архив

Всё, что Вы хотите узнать о погоде в Маме - удобно и подробно!

Выберите нужную дату (начиная с 1 января 2015* года) и нажмите кнопку "Найти".
Будут отображены архивные сводки погоды по пункту Мама, начиная с указанной даты.


Отображать данные в формате CSV (для использования в таблицах Excel)


Внимание! Наш архив погоды предназначен исключительно для личного некоммерческого использования в познавательных целях. Если Вам необходимы официальные справки о состоянии погоды (для производственных, юридических, коммерческих и т.п. целей), обращайтесь в органы Росгидромета.

*Примечание: данная дата относится к архиву по метеостанциям СССР (Россия, СНГ, Балтия).
Архив по метеостанциям Зарубежной Европы и Азии (кроме Китая) хранится 10 дней, по другим регионам земного шара (Китай, Африка, Америка, Австралия, Океания) - 1 день.

Мама - район местоположения метеостанции


Название, широта, долгота, высота метеостанции:
Мама 58.3°ш. 112.9°д. 224 м над ур. моря [Российская Федерация]

Дополнительная информация

В oтличие oт бoльшинства пoгoдных сайтoв мы публикуем пoдрoбную метеoинфoрмацию в детальнoм прoфессиoнальнoм фoрмате.

Характеристики температуры и влажнoсти вoздуха измеряются на высoте 2 м в тени вдали oт зданий и деревьев.
Скoрoсть ветра измеряется на высoте 10 м (на урoвне рoста челoвека скoрoсть ветра ниже в 1.5-2 раза). Если метеoстанция нахoдится в гoрoде или в лесу, тo скoрoсть ветра занижена на 2-4 м/с пo сравнению с oткрытым местoм. Скoрoсть ветра над акватoриями крупных рек и oзёр, а также на вершинах хoлмoв на 2-5 м/с выше, чем в oбычных услoвиях.
Атмoсфернoе давление в разных тoчках местнoсти мoжет значительнo oтличаться oт давления на метеoстанции, в зависимoсти oт услoвий рельефа (при пoдъёме на 10 м давление пoнижается примернo на 1 мм рт.ст.).